OBJECT C, 60747

Orbit data source: Space-Track

You're viewing an Uncataloged Satellite

Recently launched and/or uncataloged satellites may have evolving metadata. Metadata may include but not limited to: Owner, Maufacturer, Bus, Motor, and Mission.

OBJECT C, 60747 is a satellite owned by Yunyao yuhang (CN) in SSO that was launched on Thu, 29 Aug 2024 UTC via a GUSHENXING 1 launch vehicle from the Yellow Sea Launch Area, China (YSLA). Unknown objects in Earth's orbit typically refer to objects detected orbiting the Earth but have not yet been identified or cataloged. These objects could be anything from previously untracked satellites, spent rocket stages, debris from satellite collisions, or even natural meteoroids temporarily captured by Earth's gravity.

Loading next visibility...
OBJECT C details
Identifier
60747, 2024-153C
Orbit
SSO
Last TLE update7 hours ago
Origin
Flag of CNYunyao yuhang (CN / PRC)
ManufacturerYunyao yuhang
MissionOperational spacecraft
Bus & MotorYY-1, Unknown motor
Mass~50 kg wet, ~50 kg dry
Launch date (UTC)
2024-08-29 (5 months ago)
Launch vehicle
GUSHENXING 1
Launch site
Yellow Sea Launch Area, China (YSLA)
Object typeUnknown
Shape & HBRUnknown
Radar Cross SectionMedium (>0.1 m² and <1 m²)

Expand to show TLE details & history

TLE from 7 hours ago
0 OBJECT C
1 60747U 24153C   25014.93659765  .00016420  00000-0  83468-3 0  9996
2 60747  97.6226 138.4059 0015108 170.0229 190.1307 15.16841415 20980
Epoch: 2025-01-14T22:28Z
Definitive object data (Epoch: 2025-01-14T22:28:42.036Z)
Latitude-0.00002°
Longitude46.59461°
Altitude528.729 km
Speed7.593 km/s
True Right ascension09h 13m 37s
True Declination0° 00' 00"
Sunlit
Object was in full shadow at TLE epoch
Visualization TLE readout
Latitude31.29132°
Longitude-128.47283°
Altitude509.705 km
Speed7.617 km/s
Apparent Right ascension20h 00m 22s
Apparent Declination-3° 01' 02"
Sunlit
Object is in daylight
Visualization observer readout
Local Sidereal Time06:07:02
Azimuth317.853° NNW
Elevation-45.068°
Doppler factor1
Orbital elements
Apogee altitude522.783 km
Perigee altitude501.963 km
Semi-major axis6,890.51 km
Eccentricity0.0015108
Inclination97.6226°
RAAN138.4059°
Arg. of periapsis170.0229°
True anomaly190.1003°
Mean anomaly190.1307°
Eccentric anomaly190.1155°
Mean motion3.7946 °/min
BSTAR0.00083468
Orbital period94.87 mins
Loading maneuver chart data...
Loading historical data...
Loading historical data...
Loading historical data...
Loading historical data...
Loading historical data...
Loading historical data...
Loading historical data...

OBJECT C Visibility forecast

Observer location: undefined°, undefined

Span
Click to sort rows by Start time (UTC) header in descending order
Start Az.
Max El. time (UTC)
Max El. Az.
Max El.
End time (UTC)
End Az.
7 mins2025-01-15 08:05:49.564Z166.113° S2025-01-15 08:08:49.564Z163.432° S42.558°2025-01-15 08:12:49.564Z348.221° N
6 mins2025-01-15 21:12:49.564Z359.051° N2025-01-15 21:14:49.564Z317.835° NNW38.546°2025-01-15 21:18:49.564Z206.227° SW
|